Location: Espelette
(43.3402°N, 1.4474°W)
Time: 21:54:41
(UTC+00:00)

USA 59 Rocket - Pass Details

Date: 19 May 2025
Orbit: 373 x 1695 km, 63.3° (Epoch: 18 June)

Event Time Altitude Azimuth Distance (km) Brightness Sun altitude
Exits shadow 23:55:43 15° 316° (NW) 1,171 2.0 -26.7°
Maximum altitude 23:55:45 15° 317° (NW) 1,170 2.0 -26.7°
Drops below altitude 10° 23:57:39 10° 356° (N) 1,404 2.9 -26.7°
Sets 00:00:11 0° 22° (NNE) 2,243 4.0 -26.7°
